{"data":{"norad_id":62879,"epoch":"2026-05-25T04:22:35.173056Z","epoch_age_seconds":58524,"freshness":"FRESH","line1":"1 62879U 25024A   26145.18235154  .00218607  00000+0  16583-2 0  9990","line2":"2 62879  43.0007  80.6776 0001464 266.3551  93.7149 15.70902964 75496","mean_motion":15.70902964,"eccentricity":0.0001464,"inclination_deg":43.0007,"raan_deg":80.6776,"arg_perigee_deg":266.3551,"mean_anomaly_deg":93.7149,"bstar":0.0016583,"rev_number":7549,"period_min":91.66702418928,"perigee_km":355.32918089552,"apogee_km":357.30102847177,"semimajor_km":6734.4521046836,"source":"CELESTRAK","updated_at":"2026-05-25T13:38:19.788060Z"}}